Starlink 5021

operational
NORAD ID: 53902 Int'l Des: 2022-119 Owner: SPXS Country: US Constellation: starlink
LEOCIRCULAR

Über Starlink 5021

Beschreibung wird geladen...

Live-Position

3D-Globus wird geladen...

Nächste Überflüge

Höhenverlauf

Altitude vs Time

uPlot chart will show altitude changes over time

Zweizeiliger Elementsatz

1 53902U 22119S 25349.85703512 .00005546 00000-0 36654-3 0 9995
2 53902 53.2196 290.2164 0001604 96.3516 263.7659 15.08812642179734
Epoch: 15. Dez. 2025 • Age: 15 hours

Aktueller Status

Höhe 555.3 km
Geschwindigkeit 7.58 km/s
Subsatellitenpunkt -43.45°S, 112.23°W
Startdatum 24. Sept. 2022
Alter 3.2 years
Typ internet

Technische Details

Klassifizierung Payload
Masse 305.00 kg
Trockenmasse 290.00 kg
Gesamtmasse 305.00 kg
Länge 0.20 m
Durchmesser 2.80 m
Spannweite 9.00 m
Form Box + pan
Hersteller SPXS
Bus-Typ Starlink
Phasenstatus In Orbit
Besitzer/Staat SPXS/US

Große Konstellationen

Loading constellations...